User: anonymous   Login
Location: Unspecified
(0.0000°N, 0.0000°E)
Time: 04:21:25
(UTC+00:00)
Language:

Nimbus 3 - Orbit

View from above orbital plane
View from above orbital plane
View from above satellite
View from above satellite

Ground track
Ground track

The orbit data is extracted from the following two-line orbital elements,

1  3890U 69037A   19054.22798291 -.00000019  00000-0  44263-4 0  9998
2  3890  99.9278 325.3101 0039516 354.8442 119.5751 13.42525671442820
Epoch (UTC): 23 February 2019 05:28:17
Eccentricity: 0.0039516
inclination: 99.9278°
perigee height: 1070 km
apogee height: 1129 km
right ascension of ascending node: 325.3101°
argument of perigee: 354.8442°
revolutions per day: 13.42525671
mean anomaly at epoch: 119.5751°
orbit number at epoch: 44282

The dashed part of the orbit path shows where the satellite is in the earth's shadow,  

DLR